Weather History for Grand Marais Airport, MN

Change the Weather History Date:

Thursday, February 13, 2014

  Actual Average Record
Temperature  
Mean Temperature 6 °F -  
Max Temperature 15 °F 20 °F 46 °F (1997)
Min Temperature -2 °F 4 °F -18 °F (2007)
Degree Days  
Heating Degree Days 58    
Moisture  
Dew Point 2 °F    
Average Humidity 76    
Maximum Humidity 85    
Minimum Humidity 61    
Precipitation  
Precipitation 0.00 in - - ()
Sea Level Pressure  
Sea Level Pressure 29.53 in    
Wind  
Wind Speed 11 mph (NE)    
Max Wind Speed 22 mph    
Max Gust Speed 30 mph    
Visibility 4 miles    
Events Snow    
Averages and records for this station are not official NWS values.
T = Trace of Precipitation, MM = Missing Value Source: NWS Daily Summary

Daily Weather History Graph

Daily Weather History Graph

Search for Another Location

Airport:

Trip Planner

Search our weather history database for the weather conditions in past years. The results will help you decide how hot, cold, wet, or windy it might be!

Date:

Astronomy

Feb. 13, 2014 Rise Set
Actual Time 7:10 AM CST 5:21 PM CST
Civil Twilight 6:38 AM CST 5:53 PM CST
Nautical Twilight 6:02 AM CST 6:29 PM CST
Astronomical Twilight 5:26 AM CST 7:05 PM CST
Moon 4:29 PM CST (2/13) 6:05 AM CST (2/13)
Length of Visible Light 11h 14m
Length of Day
10h 10m
Waxing Gibbous, 99% of the Moon is Illuminated
Feb 13
Waxing Gibbous
Feb 14
Full
Feb 22
Last Quarter
Mar 1
New
Mar 8
First Quarter

Hourly Weather History & Observations

Time (CST) Temp. Windchill Dew Point Humidity Pressure Visibility Wind Dir Wind Speed Gust Speed Precip Events Conditions
12:14 AM 6.8 °F -2.0 °F -4.0 °F 61% 29.79 in 10.0 mi East 4.6 mph - N/A   Mostly Cloudy
12:33 AM 6.8 °F -3.5 °F -2.2 °F 67% 29.78 in 10.0 mi East 5.8 mph - N/A   Mostly Cloudy
12:53 AM 6.8 °F -3.5 °F -0.4 °F 72% 29.77 in 10.0 mi ESE 5.8 mph - N/A   Scattered Clouds
1:13 AM 6.8 °F -4.8 °F -0.4 °F 72% 29.76 in 10.0 mi East 6.9 mph - N/A   Scattered Clouds
1:34 AM 6.8 °F -5.9 °F -0.4 °F 72% 29.75 in 10.0 mi East 8.1 mph - N/A   Scattered Clouds
1:54 AM 6.8 °F -6.9 °F -0.4 °F 72% 29.75 in 10.0 mi East 9.2 mph - N/A   Scattered Clouds
2:14 AM 6.8 °F -6.9 °F -0.4 °F 72% 29.73 in 10.0 mi East 9.2 mph - N/A   Mostly Cloudy
2:33 AM 6.8 °F -6.9 °F 1.4 °F 79% 29.72 in 10.0 mi East 9.2 mph 16.1 mph N/A   Mostly Cloudy
2:54 AM 6.8 °F -6.9 °F 1.4 °F 79% 29.71 in 10.0 mi East 9.2 mph - N/A   Mostly Cloudy
3:13 AM 6.8 °F -8.6 °F 1.4 °F 79% 29.70 in 10.0 mi East 11.5 mph 16.1 mph N/A Snow Light Snow
3:34 AM 6.8 °F -7.8 °F 1.4 °F 79% 29.68 in 10.0 mi East 10.4 mph 19.6 mph N/A Snow Light Snow
3:53 AM 6.8 °F -8.6 °F 3.2 °F 85% 29.67 in 5.0 mi East 11.5 mph 18.4 mph N/A Snow Light Snow
4:14 AM 6.8 °F -7.8 °F 3.2 °F 85% 29.66 in 4.0 mi East 10.4 mph 21.9 mph N/A Snow Light Snow
4:33 AM 6.8 °F -11.8 °F 3.2 °F 85% 29.65 in 2.5 mi East 17.3 mph 24.2 mph N/A Snow Light Snow
4:53 AM 8.6 °F -10.5 °F 3.2 °F 79% 29.64 in 2.5 mi East 19.6 mph 25.3 mph N/A Snow Light Snow
5:13 AM 8.6 °F -6.3 °F 3.2 °F 79% 29.63 in 2.5 mi East 11.5 mph 23.0 mph N/A Snow Light Snow
5:34 AM 8.6 °F -7.7 °F 3.2 °F 79% 29.62 in 1.5 mi East 13.8 mph 25.3 mph N/A Snow Light Snow
5:53 AM 6.8 °F -10.7 °F 3.2 °F 85% 29.60 in 1.2 mi East 15.0 mph 24.2 mph N/A Snow Light Snow
6:13 AM 8.6 °F -8.9 °F 3.2 °F 79% 29.58 in 1.8 mi East 16.1 mph 26.5 mph N/A Snow Light Snow
6:33 AM 8.6 °F -6.3 °F 3.2 °F 79% 29.57 in 2.0 mi East 11.5 mph 24.2 mph N/A Snow Light Snow
6:53 AM 8.6 °F -8.9 °F 3.2 °F 79% 29.55 in 0.8 mi ENE 16.1 mph 25.3 mph N/A Snow Snow
7:13 AM 8.6 °F -11.0 °F 3.2 °F 79% 29.54 in 0.5 mi ENE 20.7 mph 27.6 mph N/A Snow Snow
7:34 AM 8.6 °F -11.0 °F 3.2 °F 79% 29.51 in 0.5 mi ENE 20.7 mph 25.3 mph N/A Snow Snow
7:53 AM 10.4 °F -6.0 °F 5.0 °F 79% 29.51 in 0.8 mi East 15.0 mph 27.6 mph N/A Snow Snow
8:13 AM 10.4 °F -5.4 °F 5.0 °F 79% 29.50 in 0.8 mi East 13.8 mph 27.6 mph N/A Snow Snow
8:34 AM 10.4 °F -5.4 °F 5.0 °F 79% 29.48 in 0.8 mi ENE 13.8 mph 26.5 mph N/A Snow Snow
8:53 AM 10.4 °F -7.2 °F 5.0 °F 79% 29.48 in 1.0 mi East 17.3 mph 24.2 mph N/A Snow Snow
9:13 AM 10.4 °F -5.4 °F 5.0 °F 79% 29.49 in 0.5 mi ENE 13.8 mph 27.6 mph N/A Snow Snow
9:34 AM 10.4 °F -6.0 °F 6.8 °F 85% 29.48 in 0.8 mi ENE 15.0 mph 26.5 mph N/A Snow Snow
9:54 AM 12.2 °F -4.3 °F 6.8 °F 79% 29.46 in 0.5 mi ENE 16.1 mph 25.3 mph N/A Snow Snow
10:14 AM 12.2 °F -3.7 °F 6.8 °F 79% 29.46 in 0.2 mi ENE 15.0 mph 21.9 mph N/A Snow Snow
10:33 AM 12.2 °F -1.8 °F 8.6 °F 85% 29.45 in 0.2 mi East 11.5 mph 19.6 mph N/A Snow Snow
10:53 AM 14.0 °F 0.5 °F 8.6 °F 79% 29.45 in 0.2 mi ESE 11.5 mph 21.9 mph N/A Snow Snow
11:13 AM 14.0 °F 1.2 °F 8.6 °F 79% 29.44 in 0.5 mi East 10.4 mph 18.4 mph N/A Snow Snow
11:34 AM 14.0 °F 0.5 °F 8.6 °F 79% 29.43 in 0.5 mi East 11.5 mph 16.1 mph N/A Snow Snow
11:53 AM 14.0 °F 2.0 °F 8.6 °F 79% 29.41 in 0.5 mi East 9.2 mph 17.3 mph N/A Snow Snow
12:13 PM 14.0 °F 1.2 °F 8.6 °F 79% 29.41 in 0.5 mi East 10.4 mph - N/A Snow Snow
12:34 PM 14.0 °F 3.9 °F 8.6 °F 79% 29.40 in 0.5 mi East 6.9 mph - N/A Snow Snow
12:53 PM 15.8 °F 4.2 °F 8.6 °F 73% 29.39 in 0.5 mi East 9.2 mph - N/A Snow Light Snow
1:33 PM 15.8 °F 6.1 °F 8.6 °F 73% 29.38 in 0.8 mi East 6.9 mph - N/A Snow Light Snow
1:54 PM 15.8 °F 5.1 °F 8.6 °F 73% 29.38 in 0.8 mi ENE 8.1 mph - N/A Snow Light Snow
2:14 PM 15.8 °F 7.2 °F 8.6 °F 73% 29.38 in 1.2 mi ENE 5.8 mph - N/A Snow Light Snow
2:34 PM 15.8 °F 7.2 °F 8.6 °F 73% 29.39 in 1.5 mi NE 5.8 mph - N/A Snow Light Snow
2:54 PM 15.8 °F 7.2 °F 6.8 °F 68% 29.40 in 2.0 mi NNE 5.8 mph - N/A Snow Light Snow
3:13 PM 15.8 °F 5.1 °F 8.6 °F 73% 29.40 in 3.0 mi North 8.1 mph - N/A Snow Light Snow
3:33 PM 15.8 °F 6.1 °F 8.6 °F 73% 29.41 in 2.5 mi NNW 6.9 mph - N/A Snow Light Snow
3:54 PM 14.0 °F 1.2 °F 8.6 °F 79% 29.42 in 2.0 mi NNW 10.4 mph - N/A Snow Light Snow
4:14 PM 12.2 °F -0.2 °F 6.8 °F 79% 29.43 in 2.0 mi NNW 9.2 mph - N/A Snow Light Snow
4:33 PM 12.2 °F -0.2 °F 6.8 °F 79% 29.43 in 1.8 mi NNW 9.2 mph - N/A Snow Light Snow
4:53 PM 12.2 °F -0.2 °F 6.8 °F 79% 29.44 in 2.5 mi NNW 9.2 mph - N/A Snow Light Snow
5:14 PM 12.2 °F -2.5 °F 6.8 °F 79% 29.45 in 3.0 mi NNW 12.7 mph - N/A Snow Light Snow
5:34 PM 12.2 °F -2.5 °F 6.8 °F 79% 29.46 in 1.2 mi NNW 12.7 mph 26.5 mph N/A Snow Light Snow
5:53 PM 6.8 °F -13.4 °F -0.4 °F 72% 29.47 in 1.5 mi NNW 20.7 mph 27.6 mph N/A Snow Light Snow
6:13 PM 5.0 °F -15.7 °F -2.2 °F 72% 29.49 in 1.5 mi NNW 20.7 mph 28.8 mph N/A Snow Light Snow
6:33 PM 3.2 °F -17.6 °F -2.2 °F 78% 29.49 in 2.0 mi NNW 19.6 mph 26.5 mph N/A Snow Light Snow
6:53 PM 1.4 °F -19.4 °F -5.8 °F 72% 29.50 in 2.0 mi NNW 18.4 mph 29.9 mph N/A Snow Light Snow
7:14 PM 1.4 °F -19.4 °F -5.8 °F 72% 29.50 in 2.5 mi NNW 18.4 mph 26.5 mph N/A Snow Light Snow
7:33 PM 1.4 °F -20.5 °F -5.8 °F 72% 29.50 in 2.0 mi NNW 20.7 mph 29.9 mph N/A Snow Light Snow
7:53 PM 1.4 °F -21.0 °F -5.8 °F 72% 29.49 in 2.5 mi North 21.9 mph 27.6 mph N/A Snow Light Snow
8:14 PM 1.4 °F -20.5 °F -5.8 °F 72% 29.50 in 5.0 mi North 20.7 mph 27.6 mph N/A   Haze
8:33 PM 1.4 °F -19.4 °F -5.8 °F 72% 29.50 in 4.0 mi North 18.4 mph 24.2 mph N/A   Haze
8:53 PM 1.4 °F -17.6 °F -5.8 °F 72% 29.51 in 10.0 mi NNW 15.0 mph - N/A   Overcast
9:14 PM 1.4 °F -18.8 °F -5.8 °F 72% 29.51 in 5.0 mi NNW 17.3 mph 23.0 mph N/A Snow Light Snow
9:34 PM 1.4 °F -18.2 °F -5.8 °F 72% 29.51 in 10.0 mi North 16.1 mph 21.9 mph N/A   Mostly Cloudy
9:53 PM 1.4 °F -18.8 °F -5.8 °F 72% 29.51 in 10.0 mi NNW 17.3 mph 21.9 mph N/A   Mostly Cloudy
10:13 PM -0.4 °F -20.5 °F -7.6 °F 72% 29.52 in 10.0 mi NNW 16.1 mph 23.0 mph N/A   Scattered Clouds
10:33 PM -0.4 °F -20.5 °F -7.6 °F 72% 29.53 in 10.0 mi NNW 16.1 mph 23.0 mph N/A   Clear
10:54 PM -2.2 °F -21.5 °F -7.6 °F 78% 29.53 in 10.0 mi NNW 13.8 mph 17.3 mph N/A   Scattered Clouds
11:14 PM -2.2 °F -19.9 °F -9.4 °F 71% 29.55 in 10.0 mi NNW 11.5 mph 16.1 mph N/A   Scattered Clouds
11:33 PM -2.2 °F -21.5 °F -9.4 °F 71% 29.55 in 10.0 mi NNW 13.8 mph 19.6 mph N/A   Clear
11:54 PM -2.2 °F -21.5 °F -9.4 °F 71% 29.55 in 10.0 mi NNW 13.8 mph 18.4 mph N/A   Clear